Windsor Locks, CT

3:02 PM EST on February 25, 2017 (GMT -0500)
Bradley International

Weather History for KBDL - January, 2013

Change the Weather History Date:

Saturday, January 19, 2013

  Actual Average Record
Temperature  
Mean Temperature 34 °F 26 °F  
Max Temperature 46 °F 34 °F 60 °F (1951)
Min Temperature 22 °F 17 °F -16 °F (1948)
Degree Days  
Heating Degree Days 31 39  
Month to date heating degree days 637 738  
Since 1 July heating degree days 2676 2982  
Cooling Degree Days 0 0  
Month to date cooling degree days 0 0  
Year to date cooling degree days 0 0  
Moisture  
Dew Point 20 °F    
Average Humidity 54    
Maximum Humidity 70    
Minimum Humidity 37    
Precipitation  
Precipitation 0.00 in 0.10 in 1.95 in (1936)
Month to date precipitation 0.72 1.96  
Year to date precipitation 0.72 1.96  
Snow  
Snow 0.00 in 0.40 in 7.70 in (1936)
Month to date snowfall 3.6 7.4  
Since 1 July snowfall 19.4 16.8  
Snow Depth 2.00 in    
Sea Level Pressure  
Sea Level Pressure 30.12 in    
Wind  
Wind Speed 12 mph (SSW)    
Max Wind Speed 21 mph    
Max Gust Speed 26 mph    
Visibility 10 miles    
Events      
T = Trace of Precipitation, MM = Missing Value Source: NWS Daily Summary

Daily Weather History Graph

Daily Weather History Graph

Search for Another Location

Airport or City:

Trip Planner

Search our weather history database for the weather conditions in past years. The results will help you decide how hot, cold, wet, or windy it might be!

Date:

Astronomy

Jan. 19, 2013 Rise Set
Actual Time 7:13 AM EST 4:49 PM EST
Civil Twilight 6:43 AM EST 5:20 PM EST
Nautical Twilight 6:09 AM EST 5:54 PM EST
Astronomical Twilight 5:35 AM EST 6:27 PM EST
Moon 11:15 AM EST (1/19) 12:43 AM EST (1/19)
Length of Visible Light 10h 36m
Length of Day
9h 35m
First Quarter, 57% of the Moon is Illuminated
Jan 19
First Quarter
Jan 26
Full
Feb 3
Last Quarter
Feb 10
New
Feb 17
First Quarter

Hourly Weather History & Observations

Time (EST) Temp. Windchill Dew Point Humidity Pressure Visibility Wind Dir Wind Speed Gust Speed Precip Events Conditions
12:51 AM 24.1 °F 12.5 °F 9.0 °F 53% 30.36 in 10.0 mi SSW 12.7 mph - N/A   Mostly Cloudy
1:51 AM 26.6 °F 15.7 °F 10.4 °F 51% 30.32 in 10.0 mi South 12.7 mph - N/A   Mostly Cloudy
2:51 AM 27.0 °F 15.6 °F 12.0 °F 53% 30.31 in 10.0 mi SSW 13.8 mph - N/A   Mostly Cloudy
3:51 AM 28.0 °F 17.5 °F 12.9 °F 53% 30.29 in 10.0 mi SSW 12.7 mph - N/A   Mostly Cloudy
4:51 AM 28.0 °F 18.1 °F 12.9 °F 53% 30.25 in 10.0 mi South 11.5 mph - N/A   Mostly Cloudy
5:51 AM 30.0 °F 19.1 °F 14.0 °F 51% 30.24 in 10.0 mi SW 15.0 mph 21.9 mph N/A   Mostly Cloudy
6:51 AM 30.9 °F 20.7 °F 15.1 °F 52% 30.23 in 10.0 mi SSW 13.8 mph - N/A   Mostly Cloudy
7:51 AM 30.9 °F 21.7 °F 18.0 °F 59% 30.22 in 10.0 mi SSW 11.5 mph - N/A   Mostly Cloudy
8:51 AM 33.1 °F 23.9 °F 19.9 °F 59% 30.22 in 10.0 mi SSW 12.7 mph - N/A   Mostly Cloudy
9:51 AM 36.0 °F 27.1 °F 21.0 °F 55% 30.20 in 10.0 mi SSW 13.8 mph 20.7 mph N/A   Mostly Cloudy
10:51 AM 37.0 °F 28.1 °F 21.9 °F 54% 30.17 in 10.0 mi SSW 15.0 mph 21.9 mph N/A   Mostly Cloudy
11:51 AM 39.9 °F 32.1 °F 23.0 °F 51% 30.11 in 10.0 mi SSW 13.8 mph - N/A   Mostly Cloudy
12:51 PM 41.0 °F 33.1 °F 23.0 °F 49% 30.07 in 10.0 mi SSW 15.0 mph - N/A   Mostly Cloudy
1:51 PM 44.1 °F 37.1 °F 23.0 °F 43% 30.04 in 10.0 mi South 15.0 mph 21.9 mph N/A   Scattered Clouds
2:51 PM 46.0 °F 39.3 °F 21.9 °F 39% 30.03 in 10.0 mi SSW 16.1 mph - N/A   Scattered Clouds
3:51 PM 45.0 °F 37.9 °F 21.9 °F 40% 30.01 in 10.0 mi SW 16.1 mph - N/A   Scattered Clouds
4:51 PM 44.1 °F 37.7 °F 21.9 °F 42% 30.01 in 10.0 mi SSW 12.7 mph - N/A   Scattered Clouds
5:51 PM 43.0 °F 37.2 °F 23.0 °F 45% 30.00 in 10.0 mi SSW 10.4 mph - N/A   Scattered Clouds
6:51 PM 42.1 °F 35.7 °F 23.0 °F 47% 30.00 in 10.0 mi SSW 11.5 mph - N/A   Scattered Clouds
7:51 PM 39.9 °F 34.5 °F 23.0 °F 51% 29.99 in 10.0 mi South 8.1 mph - N/A   Partly Cloudy
8:51 PM 37.0 °F 32.4 °F 26.1 °F 65% 29.96 in 10.0 mi SSE 5.8 mph - N/A   Mostly Cloudy
9:51 PM 37.9 °F 33.5 °F 28.9 °F 70% 29.94 in 10.0 mi South 5.8 mph - N/A   Mostly Cloudy
10:51 PM 39.9 °F 33.9 °F 30.9 °F 70% 29.91 in 10.0 mi South 9.2 mph - N/A   Mostly Cloudy
11:51 PM 39.9 °F 33.4 °F 30.0 °F 68% 29.88 in 10.0 mi South 10.4 mph - N/A   Mostly Cloudy